www.pogodaiklimat.ru

Погода и климат >> Архив погоды >> Чехия >> Пршибислав


ПОГОДА в Пршибиславе

  • Прогноз погоды в Пршибиславе
  • Монитор погоды в Пршибиславе

АРХИВ ПОГОДЫ в Пршибиславе

Время (UTC), дата Ветер
(напр.,м/с)
 
Видим.   Явления Облачность Т
(С)
Тd
(С)
f
(%)
Тe
(С)
Тes
(С)
Комфортность P
(гПа)
Po
(гПа)
Тmin
(С)
Tmax
(С)
R
(мм)
R24
(мм)
S
(см)
07 12.06 ЮВ 9-14
{13}
35 км 3/0
[Ci fib]
+22.8 +15.6 64 +27 +28 душно 1008.9 949.1
08 12.06 ЮВ 9-14
{14}
35 км 1/0
[Ci fib]
+23.4 +15.3 60 +28 +29 душно 1008.9 949.2
09 12.06 ЮВ 9
{15}
35 км ясно +24.4 +15.5 58 +27 +29 жарко 1008.8 949.3
10 12.06 ЮВ 11-16
{18}
40 км 1/1 1260 м
[Cu hum]
+26.0 +15.9 54 +29 +29 душно 1008.1 948.9
11 12.06 ЮВ 12-17
{18}
35 км ясно +26.4 +16.5 55 +30 +30 душно 1008.0 948.9
12 12.06 ЮВ 12-19
{20}
35 км ясно +26.6 +15.4 50 +29 +29 жарко 1007.6 948.6
13 12.06 ЮВ 13-20
{20}
35 км 1/1 1500 м
[Cu hum]
+26.8 +15.1 49 +30 +30 душно 1007.3 948.3
14 12.06 Ю 11-16
{20}
35 км 1/1 1500 м
[Cu hum Ac lent]
+27.1 +16.8 53 +31 +31 душно 1007.1 948.2
15 12.06 Ю 14-20
{20}
30 км 1/1 1500 м
[Cu hum Ac lent]
+26.8 +15.3 49 +30 +30 душно 1006.7 947.8
16 12.06 Ю 12-17
{20}
35 км н/о +26.6 +15.2 50 +29 +29 жарко 1006.8 947.8
17 12.06 ЮВ 10-16
{19}
30 км н/о +25.9 +15.6 53 +29 +29 душно 1006.9 947.8
18 12.06 ЮВ 10-15
{20}
25 км 5/0
[Ci sp]
+24.9 +15.9 57 +28 +28 жарко 1007.2 947.9 +27.4
19 12.06 ЮВ 6
{15}
18 км 3/0
[Ci ing]
+23.1 +16.4 66 +28 +28 душно 1008.3 948.6
20 12.06 ЮВ 6-11
{11}
18 км 5/0
[Ci ing]
+22.3 +16.8 71 +27 +27 душно 1009.4 949.5
21 12.06 нст 2
{15}
35 км {дымка} н/о +22.0 +16.9 73 +26 +26 душно 1010.8 950.7
22 12.06 ЮВ 3 35 км н/о +20.7 +16.8 78 +25 +25 комфорт 1010.7 950.4
23 12.06 В 3 29 км н/о +19.5 +16.5 83 +22 +22 комфорт 1010.9 950.3
00 13.06 В 4
{15}
27 км {дымка} н/о +19.2 +16.6 85 +21 +21 комфорт 1010.8 950.2
01 13.06 СЗ 2 7000 м дымка н/о +16.7 +15.8 94 +17 +17 1011.6 950.4
02 13.06 СЗ 4 9000 м дымка н/о +15.6 +14.7 94 +15 +15 1012.3 950.8
03 13.06 СЗ 4 15 км {дымка} н/о +14.9 +13.8 93 +14 +14 1012.7 951.0
04 13.06 СЗ 3 18 км н/о +15.1 +13.7 91 +14 +14 1013.1 951.4
05 13.06 СЗ 4 10 км 10/10 180 м
[St]
+16.0 +14.5 91 +15 +15 1013.5 952.0
06 13.06 СЗ 5 25 км 10/10 150 м
[St]
+15.0 +13.3 90 +14 +14 1014.6 952.8 +14.5
07 13.06 СЗ 3 30 км 10/10 360 м
[St]
+15.6 +12.6 82 +15 +15 1014.6 952.9
08 13.06 30 км 10/5 500 м
[Sc Cs]
+16.9 +12.6 76 1014.5 953.1
09 13.06 СЗ 3 30 км 10/5 500 м
[Sc Cs]
+18.8 +13.5 71 +20 +25 1014.2 953.2
10 13.06 30 км 9/4 500 м
[Sc Ac cast]
+20.3 +14.9 71 1013.7 953.1
11 13.06 30 км 6/1 630 м
[Cu hum Ac cast]
+22.2 +16.2 69 1013.0 952.8
12 13.06 нст 1 30 км 5/3 660 м
[Cu hum Ci sp]
+23.4 +16.4 65 +28 +41 душно 1012.5 952.6
13 13.06 25 км 6/4 1050 м
[Cu med, cong Ac cast]
+24.7 +16.7 61 1012.0 952.4
14 13.06 25 км 6/6 1380 м
[Cu med, cong]
+25.4 +16.6 58 1011.6 952.1
15 13.06 нст 2 25 км 4/4 1140 м
[Cu med, cong]
+25.7 +16.5 57 +29 +34 душно 1011.2 951.8
16 13.06 СВ 2 24 км н/о +25.2 +17.8 64 +30 +30 душно 1011.1 951.7
17 13.06 С 6 35 км н/о +22.8 +18.1 75 +28 +28 душно 1011.8 951.9
18 13.06 СВ 5 18 км 1/1 1230 м
[Cu hum Ci sp]
+21.6 +17.4 77 +26 +26 душно 1012.5 952.3 +26.6
19 13.06 СВ 5 15 км 1/1 1140 м
[Cu hum Ci sp]
+20.0 +16.5 80 +22 +22 комфорт 1013.0 952.4
20 13.06 12 км 1/0
[Ci sp]
+18.2 +15.8 86 1014.1 953.0
21 13.06 СЗ 3 11 км {дымка} н/о +17.4 +15.8 90 +17 +17 1015.0 953.7
22 13.06 З 6 12 км сильн. дождь н/о +18.2 +17.0 93 +18 +18 1015.5 954.4
23 13.06 ЮЗ 3
{12}
4600 м сильн. дождь н/о +17.5 +15.9 90 +17 +17 1017.0 955.6
00 14.06 СЗ 3
{12}
11 км слаб. дождь н/о +17.0 +16.1 94 +17 +17 1016.3 954.9 15
01 14.06 10 км {дождь} н/о +17.2 +16.0 93 1017.0 955.6
02 14.06 С 2 4800 м в посл. час дождь {ливн. осадки} н/о +16.5 +15.6 94 +17 +17 1016.9 955.3
03 14.06 нст 2 1200 м дымка {ливн. осадки, дождь} н/о +15.5 +15.0 97 +15 +15 1017.6 955.8
04 14.06 СЗ 3 100 м туман н/о +15.6 +15.2 97 +15 +15 1018.3 956.4
05 14.06 500 м туман н/о +16.7 +16.4 98 1018.5 956.9
06 14.06 СЗ 3 2000 м в посл. час туман 6/6 120 м
[St]
+17.5 +16.7 95 +17 +19 1019.1 957.6 +15.0 16
07 14.06 СЗ 3 5000 м дымка ясно +19.9 +17.4 86 +23 +30 комфорт 1018.9 957.9
08 14.06 СЗ 3 14 км 1/0
[Ci fib]
+22.5 +16.2 68 +27 +36 душно 1018.3 957.9
09 14.06 В 2 25 км 3/0
[Ci]
+24.5 +14.9 55 +27 +41 жарко 1018.2 958.1
10 14.06 30 км 5/0
[Ci]
+25.3 +15.9 56 1017.8 957.9
11 14.06 В 3 30 км 3/1 930 м
[Cu hum Ci fib]
+25.8 +16.5 56 +29 +42 душно 1017.3 957.6
12 14.06 ЮВ 3 30 км 3/1 1050 м
[Cu hum Ci fib]
+26.8 +18.1 59 +31 +44 душно 1016.7 957.2
13 14.06 ЮВ 3 30 км 5/5 1410 м
[Cu hum]
+26.9 +18.0 58 +31 +37 душно 1016.1 956.7
14 14.06 Ю 4 25 км 5/5 1410 м
[Cu hum]
+26.9 +18.6 60 +32 +36 очень
душно
1015.8 956.4
15 14.06 ЮВ 4 25 км 5/5 1470 м
[Cu hum]
+27.8 +17.8 55 +32 +35 душно 1015.0 955.8
16 14.06 ЮВ 4 35 км н/о +27.2 +18.0 57 +32 +32 очень
душно
1014.8 955.5
17 14.06 ЮВ 5 30 км н/о +26.1 +17.8 60 +30 +30 душно 1015.0 955.5
18 14.06 ЮВ 4 30 км 1/0
[Ci sp]
+24.3 +16.7 63 +28 +28 душно 1015.3 955.4 +28.0
19 14.06 В 3 30 км 1/0
[Ac lent Ci sp]
+22.2 +16.9 72 +27 +27 душно 1015.5 955.2
20 14.06 В 5 23 км 1/0
[Ci sp]
+20.9 +16.7 77 +25 +25 комфорт 1015.5 954.9
21 14.06 ЮВ 6 18 км {дымка} н/о +20.8 +17.2 80 +24 +24 комфорт 1015.3 954.7
22 14.06 ЮВ 5 12 км н/о +20.5 +17.4 82 +24 +24 комфорт 1015.0 954.4
23 14.06 ЮВ 5 9000 м дымка н/о +20.1 +17.6 86 +23 +23 комфорт 1014.8 954.1
00 15.06 В 8 8000 м дымка н/о +20.5 +18.0 86 +24 +24 комфорт 1013.6 953.1
01 15.06 ЮВ 6
{11}
8000 м дымка н/о +20.2 +17.7 86 +23 +23 комфорт 1013.3 952.7
02 15.06 В 5 12 км н/о +19.7 +17.0 84 +22 +22 комфорт 1013.1 952.4
03 15.06 В 7
{11}
15 км {дымка} н/о +19.5 +16.6 83 +21 +21 комфорт 1012.4 951.7
04 15.06 В 5 17 км н/о +19.8 +16.4 81 +22 +22 комфорт 1012.3 951.7
05 15.06 ЮВ 5 20 км н/о +20.1 +16.2 78 +23 +23 комфорт 1012.3 951.7
06 15.06 ЮВ 6
{11}
25 км 6/0
[Ac As Ci fib]
+22.2 +17.1 73 +27 +28 душно 1011.7 951.6 +19.4
07 15.06 ЮВ 7 30 км 6/0
[Ac und]
+23.9 +17.3 67 +28 +29 душно 1011.4 951.7
08 15.06 ЮВ 8 30 км 6/0
[Ac As Ci fib]
+24.6 +17.6 65 +29 +30 душно 1011.4 951.8
09 15.06 ЮВ 6 30 км 8/0
[Ac As]
+25.1 +18.7 68 +30 +33 душно 1011.2 951.8
10 15.06 ЮВ 8
{12}
30 км 9/0
[Ac As]
+25.3 +18.6 66 +30 +31 душно 1010.9 951.5
11 15.06 Ю 5-10
{11}
30 км 3/0
[Ac lent]
+27.7 +19.3 60 +33 +40 очень
душно
1010.4 951.5
12 15.06 Ю 5
{12}
35 км 6/0
[Ac und]
+27.9 +16.8 51 +32 +37 душно 1010.5 951.6
13 15.06 Ю 4 35 км 9/1 1410 м
[Cu med, cong Ac As]
+28.1 +16.9 51 +32 +35 душно 1010.2 951.3
14 15.06 Ю 4 35 км 8/3 1260 м
[Cu med, cong Ac lent Ci sp]
+27.2 +18.2 58 +32 +35 очень
душно
1010.3 951.3
15 15.06 Ю 5 20 км 5/3 1170 м
[Cb calv Ac lent Ci ing]
+28.1 +18.0 54 +33 +35 очень
душно
1009.2 950.4
16 15.06 ЮВ 3 27 км н/о +25.9 +18.4 63 +31 +31 очень
душно
1009.4 950.2
17 15.06 СЗ 8
{13}
30 км н/о +22.6 +13.8 58 +26 +26 жарко 1011.4 951.3
18 15.06 ЮВ 5
{13}
14 км гроза без осадков 9/9 840 м
[Cb cap]
+18.6 +15.1 80 +19 +19 1012.3 951.4 +29.2 0.0
19 15.06 В 4 25 км в посл. час гроза 9/6 1050 м
[Cb cap Ac cuf Ci ing]
+17.5 +14.8 84 +17 +17 1012.7 951.6
20 15.06 СЗ 3 25 км 9/5 1200 м
[Cb calv Ac cuf]
+18.3 +14.4 78 +19 +19 1012.9 951.9
21 15.06 З 4 25 км в посл. час дождь {гроза, ливн. осадки} н/о +17.7 +15.2 85 +17 +17 1014.3 953.1
22 15.06 СВ 3 35 км н/о +17.9 +15.2 84 +18 +18 1014.7 953.5
23 15.06 С 5 28 км н/о +17.5 +15.2 86 +17 +17 1015.0 953.7
00 16.06 С 6-11
{12}
30 км слаб. ливневой дождь {гроза} н/о +17.3 +15.1 87 +16 +16 1014.3 953.0 6
01 16.06 С 3
{11}
21 км {ливн. осадки} н/о +15.9 +14.6 92 +15 +15 1014.5 952.9
02 16.06 22 км н/о +15.2 +13.7 91 1014.2 952.5
03 16.06 СЗ 3
{11}
9000 м дымка {ливн. осадки} н/о +14.1 +13.5 96 +13 +13 1015.3 953.3
04 16.06 9000 м дымка н/о +15.1 +14.4 96 1015.2 953.4
05 16.06 З 4 4500 м н/о +16.2 +15.6 96 +15 +15 1016.2 954.6
06 16.06 СЗ 5
{11}
8000 м дымка 10/10 180 м
[Sc]
+16.7 +15.4 92 +16 +16 1016.7 955.2 +14.1 6
07 16.06 СЗ 4 11 км 9/9 240 м
[Sc]
+17.6 +15.5 87 +17 +18 1017.0 955.6
08 16.06 С 3 15 км 10/10 330 м
[Sc]
+17.9 +15.6 86 +18 +18 1017.3 956.0
09 16.06 СЗ 6 11 км 10/10 240 м
[Sc]
+16.8 +15.2 90 +16 +16 1018.3 956.7
10 16.06 СЗ 6
{11}
10 км 10/10 240 м
[Sc]
+15.6 +13.5 87 +14 +14 1019.6 957.6
11 16.06 СЗ 5 30 км 10/10 360 м
[Sc]
+16.2 +13.4 83 +15 +15 1019.5 957.6
12 16.06 СЗ 5
{11}
50 км 10/10 420 м
[Sc]
+17.5 +14.2 81 +17 +17 1019.0 957.5
13 16.06 СЗ 5 50 км 10/10 500 м
[Sc]
+17.5 +13.3 76 +17 +17 1019.6 958.0
14 16.06 СЗ 5 50 км 9/9 600 м
[Sc]
+17.7 +13.5 76 +17 +18 1019.2 957.7
15 16.06 СЗ 5 50 км 9/9 540 м
[Cu Sc]
+16.6 +12.7 78 +16 +16 1019.6 957.8
16 16.06 СЗ 4 35 км н/о +16.8 +12.6 76 +16 +16 1019.5 957.7
17 16.06 СЗ 4 35 км н/о +17.7 +13.0 74 +17 +17 1019.8 958.2
18 16.06 С 2 35 км {дымка} н/о +18.0 +13.1 73 +19 +19 1020.0 958.5 +18.4
19 16.06 СЗ 3 50 км 5/3 1500 м
[Cu Sc Ci sp]
+15.2 +12.3 83 +14 +14 1020.4 958.3
20 16.06 С 3 35 км 4/0
[Ci fib]
+14.0 +11.7 86 +13 +13 1020.9 958.5
21 16.06 С 3 35 км {дымка} н/о +14.3 +11.6 84 +13 +13 1021.9 959.5
22 16.06 30 км н/о +13.4 +11.4 88 1021.9 959.3
23 16.06 В 1 22 км н/о +13.4 +11.6 89 +14 +14 1021.7 959.1
00 17.06 СЗ 2 16 км {дымка} н/о +11.4 +10.5 94 +10 +10 1022.0 958.9
01 17.06 9000 м дымка н/о +11.6 +10.6 94 1022.3 959.2
02 17.06 СЗ 2 5000 м дымка {туман} н/о +10.4 +9.7 95 +9 +9 1022.8 959.4
03 17.06 СЗ 2 8000 м в посл. час туман н/о +10.2 +9.5 95 +9 +9 1022.9 959.5
04 17.06 З 1 7000 м дымка н/о +10.8 +10.3 97 +10 +10 1022.9 959.6
05 17.06 З 2 18 км н/о +13.0 +11.5 91 +12 +12 1022.5 959.7
06 17.06 нст 1 25 км 3/0
[Ci sp]
+15.4 +12.5 83 +16 +21 1022.1 959.9 +10.0
07 17.06 СВ 5 30 км 4/0
[Ci]
+18.0 +11.7 67 +18 +22 1021.6 959.9
08 17.06 СВ 4 35 км 4/3 930 м
[Cu hum Ci fib]
+19.3 +11.0 59 +20 +26 1021.2 959.8
09 17.06 СВ 4 35 км 4/4 1170 м
[Cu hum Ci fib]
+20.1 +10.8 55 +22 +28 комфорт 1020.9 959.7
10 17.06 35 км 4/4 1260 м
[Cu hum]
+20.8 +11.2 54 1020.7 959.7
11 17.06 С 4 35 км 5/5 1300 м
[Cu hum]
+21.5 +12.0 55 +24 +30 комфорт 1020.4 959.5
12 17.06 нст 2 35 км 6/5 1380 м
[Cu hum Ci fib]
+21.7 +10.8 50 +24 +32 комфорт 1020.0 959.2
13 17.06 35 км 6/5 1410 м
[Cu hum Ci]
+23.2 +13.1 53 1019.3 958.9
14 17.06 С 3 35 км 6/4 1500 м
[Cu hum Ci]
+23.0 +11.8 49 +25 +31 комфорт 1019.1 958.6
15 17.06 СВ 4 35 км 6/3 1410 м
[Cu med, cong Cs]
+21.4 +13.6 61 +24 +27 комфорт 1018.8 958.0
16 17.06 СВ 3 35 км н/о +22.2 +12.8 55 +25 +25 комфорт 1018.3 957.7
17 17.06 СВ 3 35 км н/о +21.7 +13.0 58 +24 +24 комфорт 1018.2 957.5
18 17.06 нст 2 35 км {дымка} н/о +20.5 +12.8 61 +23 +23 комфорт 1018.4 957.5 +23.9
19 17.06 35 км 9/1 1380 м
[Cu hum Ci fib]
+18.7 +12.9 69 1018.9 957.6
20 17.06 30 км 5/1 1350 м
[Cu hum Ci fib]
+17.8 +12.8 73 1019.4 957.9
21 17.06 нст 2 35 км {дымка} н/о +17.1 +11.8 71 +17 +17 1019.8 958.1
22 17.06 В 1 35 км н/о +15.5 +11.2 76 +16 +16 1020.2 958.1
23 17.06 З 1 35 км н/о +14.8 +10.8 77 +15 +15 1020.3 958.0
00 18.06 В 1 35 км {дымка} н/о +14.7 +10.4 75 +15 +15 1020.0 957.7
01 18.06 В 2 35 км н/о +13.5 +9.5 77 +13 +13 1019.8 957.3
02 18.06 ЮВ 2 35 км н/о +12.4 +10.0 85 +11 +11 1019.8 957.1
03 18.06 ЮВ 2 35 км {дымка} н/о +13.1 +9.3 78 +12 +12 1019.5 956.9
04 18.06 ЮВ 2 35 км н/о +13.5 +10.1 80 +13 +13 1019.4 956.9
05 18.06 В 1 35 км н/о +15.1 +11.0 76 +16 +16 1019.2 957.1
06 18.06 нст 2 30 км 8/0
[Ci fib]
+17.2 +13.4 78 +18 +22 1018.6 957.0 +12.3
07 18.06 В 5 30 км 8/0
[Ci fib]
+19.3 +12.7 66 +20 +24 1018.1 956.9
08 18.06 В 5 35 км 8/0
[Ci fib]
+20.2 +11.5 57 +22 +27 комфорт 1017.9 956.9
09 18.06 В 3 35 км 8/0
[Ci fib]
+21.2 +12.4 57 +23 +34 комфорт 1017.4 956.7
10 18.06 35 км 8/0
[Ci fib]
+21.7 +11.7 53 1016.9 956.3
11 18.06 ЮВ 3 35 км 6/1 1140 м
[Cu hum Ci fib]
+22.8 +13.1 54 +26 +38 жарко 1016.3 956.0
12 18.06 нст 2 35 км 5/1 1200 м
[Cu hum Ci fib]
+24.3 +13.0 49 +26 +40 жарко 1015.5 955.5
13 18.06 В 3 35 км 5/4 1500 м
[Cu hum Ci fib]
+24.2 +12.6 48 +26 +33 жарко 1015.1 955.1
14 18.06 35 км 5/3 1500 м
[Cu hum Ci fib]
+25.3 +11.3 42 1014.4 954.6
15 18.06 ЮВ 3 35 км 5/5 1500 м
[Cu hum Ci fib]
+25.3 +13.2 47 +27 +31 жарко 1013.7 954.0
16 18.06 Ю 3 35 км н/о +23.5 +13.6 54 +26 +26 жарко 1013.7 953.7
17 18.06 В 3 35 км н/о +22.4 +13.4 57 +25 +25 комфорт 1013.8 953.5
18 18.06 ЮВ 4 35 км {дымка} н/о +22.2 +13.8 59 +25 +25 комфорт 1013.9 953.6 +26.0
19 18.06 ЮВ 3 35 км 4/0
[Ac trans Ci fib]
+20.2 +13.9 67 +23 +23 комфорт 1014.3 953.6
20 18.06 В 3 35 км 3/0
[Ci fib]
+19.4 +13.6 69 +21 +21 комфорт 1015.1 954.2
21 18.06 В 4 35 км {дымка} н/о +17.1 +13.5 79 +17 +17 1015.3 953.9
22 18.06 В 4 30 км н/о +16.1 +13.3 83 +15 +15 1015.2 953.6
23 18.06 В 4 22 км н/о +15.3 +13.0 86 +14 +14 1015.0 953.2
00 19.06 В 4 21 км {дымка} н/о +14.9 +12.8 87 +14 +14 1015.2 953.3
01 19.06 В 4 22 км н/о +15.1 +12.8 86 +14 +14 1014.9 953.1
02 19.06 В 5 23 км н/о +15.3 +12.9 86 +14 +14 1014.3 952.6
03 19.06 В 5 20 км {дымка} н/о +15.2 +12.9 86 +14 +14 1014.0 952.3
05 19.06 ЮВ 4 19 км н/о +18.2 +14.7 80 +18 +18 1013.5 952.4
06 19.06 В 4 20 км 1/0
[Ci fib]
+20.2 +15.8 76 +23 +26 комфорт 1012.9 952.3 +14.5
07 19.06 ЮВ 4 35 км н/о +21.7 +16.5 72 +26 +26 душно 1012.7 952.4
08 19.06 ЮВ 6 30 км 5/4 1500 м
[Cu hum Ci fib]
+22.7 +17.0 70 +27 +30 душно 1012.3 952.3

 

Местоположение метеостанции Пршибислав (Чехия): широта 49.58 долгота 15.77 высота над уровнем моря 536 м.

В архиве по умолчанию представлена погода в Пршибиславе за последнюю неделю. Архивные данные за месяц целиком и за предыдущие месяцы, начиная с января 2011 года, Вы можете получить, выбрав интересующий диапазон дат из раскрывающегося списка и нажав кнопку "Ввод!".


*Определитесь, кто Вы:
робот инопланетянин человек

Внимание! Время в таблицах - всемирное. Для получения местного времени необходимо прибавить поправку, которая равна 1 ч.

Смотрите также архив погоды в соседних городах и на ближайших метеорологических станциях:

Погода в Свраточе (Чехия) (25 км)
Погода в Чаславе (Чехия) (48 км)
Погода в Пардубице (Чехия) (49 км)
Погода в Церкви Мыслова (Чехия) (50 км)
Погода в Кресин-Крамолине (Чехия) (50 км)
Погода в Замке Namest nad Oslav (Чехия) (52 км)
Погода на АЭС Дукованы (Чехия) (59 км)
Погода в Усти-над-Орлици (Чехия) (65 км)
Погода в Кучарловице (Чехия) (81 км)
Погода в Брно (Чехия) (83 км)

Пояснения к столбцам:

Ветер - указаны скорость ветра в м/с - средняя за 10 мин, порывы в срок и между сроками (в фигурных скобках) и направление, откуда дует ветер: С - северный, СВ - северо-восточный, В - восточный, ЮВ - юго-восточный, Ю - южный, ЮЗ - юго-западный, З - западный, СЗ - северо-западный.
Видимость - горизонтальная дальность видимости в метрах или километрах. При видимости от 1 до 10 км при отсутствии осадков обычно наблюдается дымка, при ухудшении видимости до 1 км и менее - туман. В сухую погоду видимость может ухудшаться дымом, пылью или мглою.
Явления - указаны атмосферные явления, наблюдавшиеся в срок или в последний час перед сроком; фигурными скобками обозначены явления, наблюдавшиеся между сроками (за 1-3 часа до срока); квадратными скобками обозначены град или гололедные отложения с указанием их диаметра в мм.
Облачность - указаны через наклонную черту общая и нижняя облачность в баллах и высота нижней границы облаков в метрах; квадратными скобками обозначены формы облаков: Ci - перистые, Cs - перисто-слоистые, Cc - перисто-кучевые, Ac - высококучевые, As - высокослоистые, Sc - слоисто-кучевые, Ns - слоисто-дождевые, Cu - кучевые, Cb - кучево-дождевые. Подробнее классификацию облаков см. в Атласе облаков (PDF).
T - Температура воздуха - температура, измеренная на высоте 2 м над землей.
Td - Температура точки росы - температура, при понижении до которой содержащийся в воздухе водяной пар достигнет насыщения.
f - Относительная влажность воздуха - влажноcть воздуха, измеренная на высоте 2 м над землей.
Te - Эффективная температура - температура, которую ощущает одетый по сезону человек в тени. Характеристика душности погоды. При расчете учитывается влияние влажности воздуха и скорости ветра на теплоощущения человека.
Tes - Эффективная температура на солнце - температура, которую ощущает человек, с поправкой на солнечный нагрев. Характеристика знойности погоды. Зависит от высоты солнца над горизонтом, облачности и скорости ветра. Ночью, в пасмурную погоду, а также при ветре 12 м/с и более поправка равна нулю.
P - Атмосферное давление - приведенное к уровню моря атмосферное давление.
Po - Атмосферное давление - измеренное на уровне метеостанции атмосферное давление.
Tmin - Минимальная температура - минимум температуры воздуха на высоте 2 м над землей.
Tmax - Максимальная температура - максимум температуры воздуха на высоте 2 м над землей.
R - Количество осадков - Количество выпавших осадков за период времени, мм. При наведении курсора мыши на число - период времени, за который выпало указанное количество осадков.
R24 - Количество осадков - Количество выпавших осадков за 24 часа, мм.
S - Снежный покров - Высота снежного покрова, см. При наведении курсора мыши на число - состояние снежного покрова и степень покрытия местности в баллах.